Location: Sceptre
(50.8619°N, 109.2670°W)
Time: 21:36:59
(UTC+00:00)

Envisat - Pass Details

Date: 28 January 2022
Orbit: 764 x 765 km, 98.2° (Epoch: 21 May)

Event Time Altitude Azimuth Distance (km) Brightness Sun altitude
Rises 11:22:21 0° 22° (NNE) 3,243 6.7 -34.0°
Reaches altitude 10° 11:24:58 10° 33° (NNE) 2,312 6.0 -33.5°
Maximum altitude 11:29:23 29° 93° (E) 1,383 4.8 -32.9°
Drops below altitude 10° 11:33:45 10° 153° (SSE) 2,298 5.6 -32.2°
Sets 11:36:20 0° 165° (SSE) 3,220 6.3 -31.8°
